Regional Weather Roundup
Issued by NWS Midland/Odessa, TX

Skip options and go directly to product.
Home | Oldest Version | Previous Version | Current Version | All | Text Only | Save Text | Print | Product List | Glossary On

Skip product version selection by date and time.   
728
ASUS44 KMAF 261110
RWRMAF
MIDLAND AREA WEATHER ROUNDUP
NATIONAL WEATHER SERVICE MIDLAND TX
500 AM CST WED NOV 26 2014

...IN SOUTHWEST TEXAS AND SOUTHEAST NEW MEXICO...

CITY           SKY/WX    TMP DP  RH WIND       PRES   REMARKS
ALPINE         PTCLDY    45   6  19 E6        30.30R
ANDREWS        FAIR      44  11  26 W12G18    30.13S WCI  38
ARTESIA        NOT AVBL
BIG SPRING     CLEAR     37  20  49 S8        30.15R WCI  31
CARLSBAD       CLEAR     38  15  39 N3        30.16R
DRYDEN           N/A     50  12  21 W15       30.18S
FORT STOCKTON  PTCLDY    48  11  22 SW16      30.17S
GUAD PASS      PTCLDY    36   7  29 SW28      30.25R WCI  23
HOBBS          CLEAR     41   9  26 W9        30.16R WCI  35
MARFA          PTCLDY    30  10  43 SE8       30.28S WCI  23
MIDLAND AIRPK  CLEAR     46  15  29 W10       30.14R
MIDLAND INTL   CLEAR     43  14  31 W9        30.14R WCI  38
ODESSA         CLEAR     38  13  35 W6        30.15R WCI  33
PECOS          CLEAR     50  11  20 W20       30.17S
PRESIDIO       FAIR      36  17  46 N5        30.30R WCI  32
SEMINOLE       CLEAR     38  13  36 W13       30.13S WCI  30
SNYDER         CLEAR     38  20  48 W6        30.09S WCI  33
WINK           CLEAR     34  14  43 CALM      30.16R
$$
...OTHER STATIONS IN TEXAS...

CITY           SKY/WX    TMP DP  RH WIND       PRES   REMARKS
ABILENE        CLEAR     41  22  46 S7        30.08R WCI  36
AMARILLO       CLEAR     35  24  64 N13       30.13R WCI  26
AUSTIN         CLEAR     42  34  73 S12       30.18R WCI  36
BROWNSVILLE    CLEAR     46  42  86 CALM      30.28R
CORPUS CHRISTI CLEAR     44  39  82 SW7       30.25S
DALLAS FTW     CLEAR     41  30  65 SW13      30.02F WCI  34
DEL RIO        CLEAR     37  32  82 W5        30.21R WCI  33
EL PASO        PTCLDY    33  11  39 E10       30.29R WCI  25
HOUSTON INT    CLEAR     49  39  68 CALM      30.21R
LUBBOCK        PTCLDY    41  17  38 NW9       30.08R WCI  35
SAN ANGELO     CLEAR     42  20  41 SW12      30.13F WCI  36
SAN ANTONIO    CLEAR     41  34  76 NW5       30.21R WCI  38
WACO           CLEAR     40  32  73 S12       30.10F WCI  33
WICHITA FALLS  NOT AVBL
$$
...OTHER LOCATIONS IN NEW MEXICO...

CITY           SKY/WX    TMP DP  RH WIND       PRES   REMARKS
ALAMAGORDO     PTCLDY    41  10  28 MISG      30.27S
ALBUQUERQUE    PTCLDY    34   7  32 CALM      30.33S
CANNON AFB     MOCLDY    43  18  36 NW15      30.11R WCI  36
CLOVIS         MOCLDY    39  18  41 NW17      30.10R WCI  30
HOLLOMAN AFB   PTCLDY    31   6  35 N8        30.28S WCI  23
ROSWELL        PTCLDY    33  15  47 VRB5      30.15F WCI  29
RUIDOSO        CLEAR     39  16  38 NW10      30.29S WCI  32
SANTA FE       PTCLDY    35  14  42 N17       30.25S WCI  25
TRUTH OR CONSE CLEAR     32  11  41 NW6       30.31S WCI  26
TUCUMCARI      PTCLDY    41  21  44 W12       30.10R WCI  34
$$

USA.gov is the U.S. government's official web portal to all federal, state and local government web resources and services.